          11 19  10 52.25  +08 57.0   4.993  5.682    11.9 / 269  16.0   22  .94

          12 19  10 51.45  +08 56.7   4.985  5.689    12.0 / 269  16.0    7  .87

          13 19  10 50.63  +08 56.6   4.978  5.695    12.2 / 269  16.0    9  .79

          14 19  10 49.81  +08 56.4   4.971  5.701    12.4 / 270  16.0   23  .69

          15 19  10 48.97  +08 56.4   4.965  5.708    12.6 / 270  16.0   37  .58

NAKANO

         **** Don't distribute anyone except personal use only ****

                (C) Copyright 2000 OAA/ComputingSection

write mail from CFAD0::NAKANO on 2000-12-03 02:29:46(JST).

 

    C/1999 H3 (LINEAR) 

Epoch 1999 Aug. 10.0 TT = JDT 2451400.5  

T 1999 Aug. 18.24007 TT                                 Nakano

q   3.5008560            (2000.0)            P               Q

z  -0.0007939      Peri.  101.91251     -0.37891208     -0.82843414

 +/-0.0000009      Node   332.72373     -0.61127979     +0.55867571

e   1.0027795      Incl.  115.84026     +0.69481124     +0.03972800

From 640 observations 1999 Apr. 22-2000 July 8, mean residual 0".62.



NAKANO

         **** Don't distribute anyone except personal use only ****

                (C) Copyright 2000 OAA/ComputingSection

write mail from CFAD0::NAKANO on 2000-07-24 23:12:39(JST).

 



    C/1999 H3 (LINEAR) 

Epoch 1999 Aug. 10.0 TT = JDT 2451400.5  

T 1999 Aug. 18.24024 TT                                 Nakano

q   3.5008558            (2000.0)            P               Q

z  -0.0007937      Peri.  101.91255     -0.37891256     -0.82843397

 +/-0.0000009      Node   332.72374     -0.61127947     +0.55867601

e   1.0027788      Incl.  115.84026     +0.69481125     +0.03972754

From 625 observations 1999 Apr. 22-2000 May 16, mean residual 0".61.





NAKANO

         **** Don't distribute anyone except personal use only ****

                (C) Copyright 2000 OAA/ComputingSection

write mail from CFAD0::NAKANO on 2000-05-22 23:02:40(JST).

 



    C/1999 H3 (LINEAR) 

Epoch 1999 Aug. 10.0 TT = JDT 2451400.5  

T 1999 Aug. 18.24108 TT                                 Nakano

q   3.5008533            (2000.0)            P               Q

z  -0.0007922      Peri.  101.91272     -0.37891501     -0.82843289

 +/-0.0000011      Node   332.72375     -0.61127789     +0.55867775

e   1.0027734      Incl.  115.84026     +0.69481131     +0.03972546

From 541 observations 1999 Apr. 22-2000 Apr. 16, mean residual 0".62.



NAKANO

         **** Don't distribute anyone except personal use only ****

                (C) Copyright 2000 OAA/ComputingSection

write mail from CFAD0::NAKANO on 2000-04-18 01:20:24(JST).



    C/1999 H3 (LINEAR) 

Epoch 1999 Aug. 10.0 TT = JDT 2451400.5  

T 1999 Aug. 18.24532 TT                                 Nakano

q   3.5008420            (2000.0)            P               Q

z  -0.0007864      Peri.  101.91360     -0.37892756     -0.82842766

 +/-0.0000034      Node   332.72382     -0.61126986     +0.55868630

e   1.0027532      Incl.  115.84028     +0.69481153     +0.03971440

From 360 observations 1999 Apr. 22-2000 Jan. 20, mean residual 0".63.



NAKANO

         **** Don't distribute anyone except personal use only ****

                (C) Copyright 2000 OAA/ComputingSection

write mail from CFAD0::NAKANO on 2000-01-25 02:03:41(JST).



    C/1999 H3 (LINEAR) 

Epoch 1999 Aug. 10.0 TT = JDT 2451400.5  

T 1999 Aug. 18.24927 TT                                 Nakano

q   3.5008217            (2000.0)            P               Q

z  -0.0007713      Peri.  101.91431     -0.37893856     -0.82842237

 +/-0.0000077      Node   332.72376     -0.61126313     +0.55869473

e   1.0027000      Incl.  115.84034     +0.69481145     +0.03970619

From 326 observations 1999 Apr. 22-Oct. 21, mean residual 0".64.



NAKANO

         **** Don't distribute anyone except personal use only ****

                (C) Copyright 1999 OAA/ComputingSection

write mail from CFAD0::NAKANO on 1999-10-26 05:12:24(JST).





    C/1999 H3 (LINEAR) 

Epoch 1999 Aug. 10.0 TT = JDT 2451400.5  

T 1999 Aug. 18.24918 TT                                 Nakano

q   3.5008245            (2000.0)            P               Q

z  -0.0007743      Peri.  101.91434     -0.37893858     -0.82842261

 +/-0.0000098      Node   332.72380     -0.61126307     +0.55869440

e   1.0027108      Incl.  115.84033     +0.69481149     +0.03970568

From 319 observations 1999 Apr. 22-Sept. 9, mean residual 0".64.



NAKANO

         **** Don't distribute anyone except personal use only ****

                (C) Copyright 1999 OAA/ComputingSection

write mail from CFAD0::NAKANO on 1999-09-28 01:08:24(JST).

 





    C/1999 H3 (LINEAR) 

Epoch 1999 Aug. 10.0 TT = JDT 2451400.5  

T 1999 Aug. 18.25117 TT                                 Nakano

q   3.5007944            (2000.0)            P               Q

z  -0.0007412      Peri.  101.91444     -0.37894170     -0.82842061

 +/-0.0000272      Node   332.72369     -0.61126264     +0.55869739

e   1.0025947      Incl.  115.84047     +0.69481017     +0.03970541

From 243 observations 1999 Apr. 22-July 22, mean residual 0".66.



    C/1999 H3 (LINEAR) 

T 1999 Aug. 18.36491 TT                                 Nakano

q   3.5000330            (2000.0)            P               Q

                   Peri.  101.93280     -0.37923036     -0.82829526

                   Node   332.72381     -0.61111678     +0.55889841

e   1.0            Incl.  115.84386     +0.69478099     +0.03949084

From 182 observations 1999 Apr. 22-June 17.



    C/1999 H3 (LINEAR) 

T 1999 Aug. 18.31263 TT                                 Nakano

q   3.5001936            (2000.0)            P               Q

                   Peri.  101.92054     -0.37905658     -0.82836684

                   Node   332.72273     -0.61122720     +0.55878140

e   1.0            Incl.  115.84358     +0.69477868     +0.03964499

From 159 observations 1999 Apr. 22-June 8.

NAKANO

         **** Don't distribute anyone except personal use only ****

                (C) Copyright 1999 OAA/ComputingSection



    C/1999 H3 (LINEAR) 

T 1999 Aug. 18.21120 TT                                 Nakano

q   3.5005484            (2000.0)            P               Q

                   Peri.  101.89621     -0.37871102     -0.82850819

                   Node   332.72050     -0.61144449     +0.55854999

e   1.0            Incl.  115.84291     +0.69477594     +0.03995119

From 96 observations 1999 Apr. 22-May 16.

    C/1999 H3 

T 1999 Aug. 19.45297 TT                                 Nakano

q   3.4953858            (2000.0)            P               Q

                   Peri.  102.20739     -0.38311760     -0.82674423

                   Node   332.75548     -0.60873154     +0.56142443

e   1.0            Incl.  115.85493     +0.69474227     +0.03600831

From 48 observations 1999 Apr. 22-26.

 

戻ります。